This demonstration page uses our WeatherBlox Daily Observations layout. Learn more.

Left ArrowRight Arrow

Hourly Observations for January 18, 2017

Temp ( °F °C ) Dew Point ( °F °C ) Humidity (%) Winds ( mph kmh ) Pressure ( in mb ) Visibility ( mi km ) Precip ( " mm )
12:53 am 00:53 Cloudy 44 6.7 41 5 89 89 Calm 30.12 1020 10 16 0.00 0.00
1:53 am 01:53 Cloudy 44 6.7 41 5 89 89 W 5 7 30.11 1020 10 16 0.00 0.00
2:53 am 02:53 Cloudy 44 6.7 42 5.6 93 93 WSW 5 7 30.11 1020 10 16 0.00 0.00
3:53 am 03:53 Cloudy 44 6.7 42 5.6 93 93 WSW 5 7 30.11 1020 10 16 0.00 0.00
4:53 am 04:53 Cloudy 44 6.7 41 5 89 89 WSW 6 9 30.09 1019 10 16 0.00 0.00
5:53 am 05:53 Cloudy 44 6.7 41 5 89 89 WSW 5 7 30.09 1019 10 16 0.00 0.00
6:53 am 06:53 Cloudy 44 6.7 42 5.6 93 93 SW 5 7 30.10 1019 10 16 0.00 0.00
7:53 am 07:53 Cloudy 44 6.7 41 5 89 89 WSW 8 13 30.10 1019 10 16 0.00 0.00
8:53 am 08:53 Cloudy 45 7.2 41 5 86 86 WSW 6 9 30.10 1019 10 16 0.00 0.00
9:41 am 09:41 Partly Cloudy 47 8.3 41 5 80 80 Calm 30.15 1021 10 16 0.00 0.00
9:53 am 09:53 Mostly Sunny 48 8.9 40 4.4 74 74 S 3 6 30.11 1020 10 16 0.00 0.00
10:53 am 10:53 Sunny 50 10 41 5 71 71 SSW 9 15 30.11 1020 10 16 0.00 0.00
11:53 am 11:53 Sunny 52 11.1 42 5.6 69 69 SSW 8 13 30.09 1019 10 16 0.00 0.00
12:53 pm 12:53 Sunny 55 12.8 42 5.6 62 62 SSW 8 13 30.03 1017 10 16 0.00 0.00
1:53 pm 13:53 Sunny 57 13.9 41 5 55 55 SW 9 15 29.98 1015 10 16 0.00 0.00
2:53 pm 14:53 Sunny 58 14.4 40 4.4 51 51 WNW 7 11 29.95 1014 10 16 0.00 0.00
3:53 pm 15:53 Sunny 60 15.6 41 5 50 50 SSW 9 15 29.92 1013 10 16 0.00 0.00
4:53 pm 16:53 Sunny 60 15.6 40 4.4 47 47 SW 5 7 29.91 1013 10 16 0.00 0.00
5:53 pm 17:53 Sunny 59 15 42 5.6 54 54 S 5 7 29.90 1013 10 16 0.00 0.00
6:53 pm 18:53 Clear 52 11.1 41 5 66 66 SSW 7 11 29.92 1013 10 16 0.00 0.00
7:53 pm 19:53 Clear 49 9.4 39 3.9 69 69 WSW 9 15 29.93 1014 10 16 0.00 0.00
8:53 pm 20:53 Clear 49 9.4 39 3.9 69 69 W 10 17 29.93 1014 10 16 0.00 0.00
9:53 pm 21:53 Clear 50 10 38 3.3 63 63 W 10 17 29.92 1013 10 16 0.00 0.00
10:53 pm 22:53 Clear 48 8.9 37 2.8 66 66 W 10 17 29.91 1013 10 16 0.00 0.00
11:53 pm 23:53 Clear 46 7.8 37 2.8 71 71 SW 10 17 29.90 1012 10 16 0.00 0.00

Powered by AerisWeather